Regional Weather Roundup
Issued by NWS

Home | Current Version | Previous Version | Text Only | Print | Product List | Glossary Off
Versions: 1 2 3 4 5 6 7 8 9 10 11 12 13 14 15 16 17 18 19 20 21 22 23 24 25 26 27 28 29 30 31 32 33 34 35 36 37 38 39 40 41 42 43 44 45 46 47 48 49 50

000
ASUS43 KMPX 252110
RWRMN
WEATHER ROUNDUP FOR MINNESOTA
NATIONAL WEATHER SERVICE TWIN CITIES/CHANHASSEN MN
300 PM CST THU DEC 25 2014


NOTE: "FAIR" INDICATES FEW OR NO CLOUDS BELOW 12,000 FEET WITH NO
SIGNIFICANT WEATHER AND/OR OBSTRUCTIONS TO VISIBILITY. N/A MEANS
CURRENT SKY AND/OR WEATHER CONDITIONS ARE NOT AVAILABLE.

MNZ060>063-068>070-252200-
   Twin Cities Metro

CITY           SKY/WX    TMP DP  RH WIND       PRES   REMARKS
TWIN CITIES    CLOUDY    35  28  75 SE5       29.76S WCI  31
ST PAUL        CLOUDY    35  29  78 E5        29.78R WCI  31
CRYSTAL        LGT SNOW  34  31  88 CALM      29.76R FOG
BLAINE         LGT SNOW  34  34 100 CALM      29.76R
LAKEVILLE      CLOUDY    34  28  80 SE3       29.76R
EDEN PRAIRIE   CLOUDY    35  28  75 CALM      29.75R
SOUTH ST PAUL  CLOUDY    35  30  82 SE3       29.77R
LAKE ELMO      CLOUDY    34  32  93 S5        29.78R WCI  30
$$
MNZ001>005-007-008-013>017-022>024-027-028-252200-
   Northwest Minnesota

CITY           SKY/WX    TMP DP  RH WIND       PRES   REMARKS
BEMIDJI        CLOUDY    29  24  80 NW9       29.75R WCI  20
HALLOCK        CLOUDY    28  25  86 N14       29.81R WCI  17
ROSEAU         CLOUDY    28  23  80 W6        29.77R WCI  22
WARROAD        CLOUDY    28  25  86 NW6       29.77R WCI  22
THIEF RVR FALL CLOUDY    27  21  80 NW14      29.80R WCI  15
CROOKSTON      CLOUDY    28  23  80 N12       29.83R WCI  18
FOSSTON        CLOUDY    27  23  86 NW8       29.78R WCI  18
DETROIT LAKES  CLOUDY    28  28 100 N10       29.78R WCI  19
MOORHEAD       CLOUDY    30  30 100 NW8       29.81R WCI  23
PARK RAPIDS    CLOUDY    30  24  78 NW7       29.74R WCI  23
MAHNOMEN       CLOUDY    28  25  88 NW9       29.78R WCI  19
$$
MNZ006-009>011-018-025>026-252200-
   North Central Minnesota

CITY           SKY/WX    TMP DP  RH WIND       PRES   REMARKS
BAUDETTE       CLOUDY    28  22  78 W5        29.75R WCI  23
FLAG ISLAND    CLOUDY    28  25  86 NW9       29.74R WCI  20
INTL FALLS     CLOUDY    30  25  81 NW8       29.73R WCI  22
WASKISH        CLOUDY    28  25  86 CALM      29.75R
BIG FORK       CLOUDY    32  25  74 W3        29.74R
LONGVILLE      CLOUDY    30  25  80 W5        29.74R WCI  25
GRAND RAPIDS   CLOUDY    30  23  74 W3        29.74R
CRANE LAKE     CLOUDY    30  27  86 CALM      29.74R
ORR            CLOUDY    30  23  74 W6        29.70R WCI  24
COOK           CLOUDY    30  25  80 W6        29.73R WCI  24
WALKER         CLOUDY    30  23  76 NW5       29.74R WCI  25
$$
MNZ012-019>021-037-252200-
   Northeast Minnesota

CITY           SKY/WX    TMP DP  RH WIND       PRES   REMARKS
DULUTH         CLOUDY    32  26  78 W12       29.73R WCI  23
ELY            CLOUDY    30  27  86 W6        29.71R WCI  24
HIBBING        CLOUDY    32  22  66 NW7       29.73R WCI  26
EVELETH        CLOUDY    32  28  86 W8        29.74R WCI  25
DULUTH HARBOR  CLOUDY    36  30  80 SW7       29.78R
TWO HARBORS    CLOUDY    36  28  75 W7        29.72R
SILVER BAY     CLOUDY    34  28  80 CALM      29.72R
GRAND MARAIS     N/A     34  28  79 W5        29.74R WCI  30
G MARAIS ARPRT CLOUDY    27  23  86 W3        29.69R
$$
MNZ029>031-032-039>041-046>048-054>057-064-252200-
   West Central Minnesota

CITY           SKY/WX    TMP DP  RH WIND       PRES   REMARKS
FERGUS FALLS   CLOUDY    28  25  86 N9        29.81R WCI  20
WHEATON        CLOUDY    27  25  93 N13       29.80S WCI  16
MORRIS         CLOUDY    30  27  86 N13       29.76R WCI  20
ALEXANDRIA     CLOUDY    30  26  85 N12       29.75R WCI  20
ELBOW LAKE     CLOUDY    29  26  88 N7        29.76R WCI  22
WADENA         CLOUDY    28  25  86 N9        29.75R WCI  20
GLENWOOD       CLOUDY    30  28  93 N8        29.75R WCI  23
APPLETON       CLOUDY    30  28  93 N10       29.78R WCI  21
BENSON         CLOUDY    30  27  86 N7        29.77R WCI  23
ORTONVILLE     CLOUDY    28  25  86 N12G17    29.77R WCI  18
MADISON        LGT SNOW  34  30  86 N13       29.77R WCI  25
WILLMAR        LGT SNOW  32  30  93 CALM      29.76R VSB 1
$$
MNZ033>034-036-042>043-049>051-058-059-252200-
   Central Minnesota

CITY           SKY/WX    TMP DP  RH WIND       PRES   REMARKS
ST CLOUD       CLOUDY    36  28  73 CALM      29.75R
SAUK CENTRE    CLOUDY    32  28  86 N3        29.75R
PAYNESVILLE    CLOUDY    31  28  90 NW3       29.75R
AITKIN         CLOUDY    36  28  75 CALM      29.74R
PINE RIVER     CLOUDY    30  23  74 N3        29.79R
BRAINERD       CLOUDY    32  27  81 NW7       29.75R WCI  26
STAPLES        CLOUDY    28  25  86 N8        29.75R WCI  20
LONG PRAIRIE   CLOUDY    32  28  86 NW6       29.75R WCI  26
LITTLE FALLS   CLOUDY    32  28  86 W3        29.76R
LITCHFIELD     LGT SNOW  34  34 100 CALM      29.75R VSB 1
BUFFALO        LGT SNOW  32  30  93 CALM      29.77R
MAPLE LAKE     LGT SNOW  33  32  96 CALM      29.76R
$$
MNZ037-044-045-052-053-252200-
   East Central Minnesota

CITY           SKY/WX    TMP DP  RH WIND       PRES   REMARKS
PRINCETON      CLOUDY    36  30  80 CALM      29.76R FOG
MORA           CLOUDY    32  28  86 SW5       29.77R WCI  27
CAMBRIDGE      LGT SNOW  34  27  75 CALM      29.75R
RUSH CITY      CLOUDY    32  30  92 CALM      29.77R
MOOSE LAKE     CLOUDY    32  28  86 W3        29.74R
HINCKLEY       CLOUDY    32  30  93 CALM      29.76R FOG
CLOQUET        CLOUDY    32  27  80 W6        29.74R WCI  26
MCGREGOR       CLOUDY    32  28  86 W5        29.75R WCI  27
$$
MNZ071>073-080-081-089-090-097-098-252200-
   Southwest Minnesota

CITY           SKY/WX    TMP DP  RH WIND       PRES   REMARKS
MONTEVIDEO     LGT SNOW  32  32 100 N10       29.76S WCI  24
GRANITE FALLS  CLOUDY    32  31  95 N6        29.76S FOG     WCI  26
CANBY          LGT SNOW  31  30  95 N12       29.75S WCI  22
MARSHALL       CLOUDY    30  28  93 NE12      29.74R WCI  21
REDWOOD FALLS  CLOUDY    33  29  85 NE5       29.74R FOG     WCI  29
OLIVIA         LGT SNOW  30  30 100 N6        29.74R WCI  24
PIPESTONE      CLOUDY    32  30  93 NE14G20   29.66S FOG     WCI  22
WINDOM         PTSUNNY   34  30  86 N9        29.69S WCI  26
WORTHINGTON    CLOUDY    36 N/A N/A NE13      29.66S
JACKSON        MOSUNNY   36  30  80 NE7       29.68S
TRACY          CLOUDY    32  31  96 N9        29.72S FOG     WCI  24
SLAYTON        CLOUDY    31  29  93 N16       29.68F FOG     WCI  20
$$
MNZ065>067-074>077-082>085-091>093-252200-
   South Central Minnesota

CITY           SKY/WX    TMP DP  RH WIND       PRES   REMARKS
MANKATO        CLOUDY    36  28  75 E3        29.73S
NEW ULM        CLOUDY    34  30  86 NE3       29.74R
ST JAMES       CLOUDY    37  32  81 N5        29.72S
FAIRMONT       PTSUNNY   36  28  75 SE6       29.70S
GLENCOE        LGT SNOW  33  32  95 CALM      29.75R
FARIBAULT      CLOUDY    36  30  80 SE3       29.75R
OWATONNA       CLOUDY    37  30  75 S5        29.75R
ALBERT LEA     PTSUNNY   36  30  80 SE7       29.73R
$$
MNZ078>079-086>088-094>096-252200-
   Southeast Minnesota

CITY           SKY/WX    TMP DP  RH WIND       PRES   REMARKS
ROCHESTER      MOSUNNY   34  29  82 SE10      29.76R WCI  26
RED WING       CLOUDY    37  30  75 SE3       29.77R
STANTON        CLOUDY    37  31  79 SE3       29.75R
DODGE CENTER   PTSUNNY   36  30  80 S9        29.75R
WINONA         PTSUNNY   41  30  65 S3        29.80R
AUSTIN         PTSUNNY   36  30  80 S3        29.75R
PRESTON        PTSUNNY   34  30  84 CALM      29.77R
$$
ABBREVIATIONS USED IN REMARKS
   TC - TEMPERATURES IN CELSIUS
  WCI - WIND CHILL INDEX
   HX - HEAT INDEX
  VSB - VISIBILITY
$$


USA.gov is the U.S. government's official web portal to all federal, state and local government web resources and services.